Regional Weather Roundup
Issued by NWS

Home | Current Version | Previous Version | Graphics & Text | Print | Product List | Glossary On
Versions: 1 2 3 4 5 6 7 8 9 10 11 12 13 14 15 16 17 18 19 20 21 22 23 24 25 26 27 28 29 30 31 32 33 34 35 36 37 38 39 40 41 42 43 44 45 46 47 48 49 50
000
ASUS43 KBIS 182210
RWRND

NORTH DAKOTA REGIONAL WEATHER ROUNDUP
NATIONAL WEATHER SERVICE BISMARCK ND
500 PM CDT FRI AUG 18 2017

NOTE: "FAIR" INDICATES FEW OR NO CLOUDS BELOW 12,000 FEET WITH NO
SIGNIFICANT WEATHER AND/OR OBSTRUCTIONS TO VISIBILITY.


NDZ001>003-009>011-017-182300-
NORTHWEST NORTH DAKOTA

CITY           SKY/WX    TMP DP  RH WIND       PRES   REMARKS
WILLISTON      SUNNY     84  50  30 VRB3      29.89F
MINOT          SUNNY     83  48  29 W10       29.88F
MINOT AFB      SUNNY     83  44  25 NW10      29.87F
$$

NDZ018>021-031>035-040>046-182300-
SOUTHWEST NORTH DAKOTA

CITY           SKY/WX    TMP DP  RH WIND       PRES   REMARKS
BISMARCK       SUNNY     82  52  35 VRB6      29.92F
DICKINSON      SUNNY     83  47  28 N9        29.93F
GARRISON         N/A     78  50  37 NW10G24   29.90F
HETTINGER ARPT SUNNY     83  46  27 W6        29.97F
$$

NDZ004>008-012>016-024-026-027-054-182300-
NORTHEAST NORTH DAKOTA

CITY           SKY/WX    TMP DP  RH WIND       PRES   REMARKS
GRAND FORKS    MOSUNNY   81  57  43 NW10      29.82F
GRND FRKS AFB  SUNNY     80  55  41 N8        29.84S
DEVILS LAKE    PTSUNNY   78  53  41 NW12      29.88F
$$

NDZ022-023-025-028>030-036>039-047>053-182300-
SOUTHEAST NORTH DAKOTA

CITY           SKY/WX    TMP DP  RH WIND       PRES   REMARKS
FARGO          MOSUNNY   79  62  56 W10       29.86S
JAMESTOWN      SUNNY     77  58  51 CALM      29.89F
$$





USA.gov is the U.S. government's official web portal to all federal, state and local government web resources and services.